Location: Alfords
(31.4624°N, 83.9238°W)
Time: 12:22:00
(UTC+00:00)

ISS - Pass Details

Date: 20 September 2021
Orbit: 417 x 423 km, 51.6° (Epoch: 26 October)

Event Time Altitude Azimuth Distance (km) Brightness Sun altitude
Rises 00:09:41 0° 258° (WSW) 2,349 1.7 -8.0°
Reaches altitude 10° 00:12:13 10° 277° (W) 1,490 0.8 -8.6°
Maximum altitude 00:14:39 19° 324° (NW) 1,080 -1.1 -9.1°
Drops below altitude 10° 00:17:06 10° 11° (N) 1,496 -1.0 -9.6°
Sets 00:19:38 0° 31° (NNE) 2,364 -0.2 -10.2°
